Location: Hobi?a Gr?di?te
(45.4833°N, 22.7833°E)
Time: 10:34:44
(UTC+00:00)

Cosmos 1269 Rocket - Pass Details

Date: 28 January 2023
Orbit: 771 x 779 km, 74.1° (Epoch: 20 March)

Event Time Altitude Azimuth Distance (km) Brightness Sun altitude
Rises 15:55:46 0° 202° (SSW) 3,234 8.0 -5.1°
Reaches altitude 10° 15:58:08 10° 204° (SSW) 2,312 7.2 -5.5°
Maximum altitude 16:03:24 80° 291° (WNW) 791 4.2 -6.4°
Drops below altitude 10° 16:08:43 10° 19° (NNE) 2,334 6.2 -7.2°
Sets 16:11:07 0° 21° (NNE) 3,267 6.9 -7.6°
